Location: Peterborough
(44.3091°N, 78.3197°W)
Time: 16:14:35
(UTC-04:00)

Explorer 7 - Pass Details

Date: 31 March 2023
Orbit: 477 x 653 km, 50.3° (Epoch: 04 June)

Event Time Altitude Azimuth Distance (km) Brightness Sun altitude
Rises 21:28:52 0° 296° (WNW) 2,794 12.1 -19.5°
Reaches altitude 10° 21:31:14 10° 291° (WNW) 1,860 10.7 -19.9°
Maximum altitude 21:35:20 50° 216° (SW) 689 7.3 -20.5°
Enters shadow 21:36:00 45° 182° (S) 740 7.2 -20.6°
Drops below altitude 10° 21:39:10 10° 140° (SE) 1,744 - -21.1°
Sets 21:41:20 0° 135° (SE) 2,600 - -21.5°
